LRSM Weather Reports


time (UTC)temp
F
wind
direction
speed
knots
gust
knots
rain 1hr
in
rain 24hr
in
rain mn
in
humidity
%
barometer
mb
20260507093333 72 180 8.7 0.0 0.00 0.00 0.00 47 1014.0
20260507091834 70 180 9.6 0.0 0.00 0.00 0.00 50 1014.0
20260507090332 70 180 9.6 0.0 0.00 0.00 0.00 50 1014.0
20260507084832 70 180 8.7 0.0 0.00 0.00 0.00 50 1014.0
20260507083333 70 180 8.7 0.0 0.00 0.00 0.00 50 1014.0
20260507081832 70 180 9.6 0.0 0.00 0.00 0.00 46 1013.0
20260507080333 70 180 9.6 0.0 0.00 0.00 0.00 46 1013.0
20260507074833 68 180 8.7 0.0 0.00 0.00 0.00 53 1013.0
20260507073332 68 180 8.7 0.0 0.00 0.00 0.00 53 1013.0
20260507071832 68 210 7.0 0.0 0.00 0.00 0.00 53 1013.0
20260507070332 68 210 7.0 0.0 0.00 0.00 0.00 53 1013.0
20260507064832 68 200 7.0 0.0 0.00 0.00 0.00 53 1013.0
20260507063332 68 200 7.0 0.0 0.00 0.00 0.00 53 1013.0
20260507061842 68 180 6.1 0.0 0.00 0.00 0.00 49 1013.0
20260507060332 68 180 6.1 0.0 0.00 0.00 0.00 49 1013.0
20260507054832 66 170 5.2 0.0 0.00 0.00 0.00 52 1013.0
20260507053340 66 170 5.2 0.0 0.00 0.00 0.00 52 1013.0
20260507051833 64 170 4.3 0.0 0.00 0.00 0.00 56 1012.0
20260507050332 64 170 4.3 0.0 0.00 0.00 0.00 56 1012.0
20260507044829 61 140 5.2 0.0 0.00 0.00 0.00 63 1012.0
20260507043332 61 140 5.2 0.0 0.00 0.00 0.00 63 1012.0
20260507041832 57 150 2.6 0.0 0.00 0.00 0.00 67 1012.0
20260507040332 57 150 2.6 0.0 0.00 0.00 0.00 67 1012.0
20260507034829 57 210 4.3 0.0 0.00 0.00 0.00 67 1012.0
20260507033331 57 210 4.3 0.0 0.00 0.00 0.00 67 1012.0
20260507031832 55 270 6.1 0.0 0.00 0.00 0.00 72 1012.0
20260507030332 55 270 6.1 0.0 0.00 0.00 0.00 72 1012.0
20260507023332 52 100 1.7 0.0 0.00 0.00 0.00 77 1012.0
20260507021832 52 70 2.6 0.0 0.00 0.00 0.00 77 1011.0
20260507020332 52 70 2.6 0.0 0.00 0.00 0.00 77 1011.0
20260507014832 54 80 2.6 0.0 0.00 0.00 0.00 72 1011.0
20260507013332 54 80 2.6 0.0 0.00 0.00 0.00 72 1011.0
20260507011832 52 0 0.0 0.0 0.00 0.00 0.00 77 1011.0
20260507010332 52 0 0.0 0.0 0.00 0.00 0.00 77 1011.0
20260507004832 52 0 0.0 0.0 0.00 0.00 0.00 77 1011.0
20260507003332 52 0 0.0 0.0 0.00 0.00 0.00 77 1011.0
20260507001832 54 80 2.6 0.0 0.00 0.00 0.00 72 1011.0
20260507000332 54 80 2.6 0.0 0.00 0.00 0.00 72 1011.0
20260506234832 54 100 4.3 0.0 0.00 0.00 0.00 72 1011.0
20260506233332 54 100 4.3 0.0 0.00 0.00 0.00 72 1011.0
20260506231833 55 190 4.3 0.0 0.00 0.00 0.00 72 1011.0
20260506230332 55 190 4.3 0.0 0.00 0.00 0.00 72 1011.0
20260506224828 55 200 4.3 0.0 0.00 0.00 0.00 72 1011.0
20260506223332 55 200 4.3 0.0 0.00 0.00 0.00 72 1011.0
20260506221832 55 0 0.0 0.0 0.00 0.00 0.00 72 1011.0
20260506220331 55 0 0.0 0.0 0.00 0.00 0.00 72 1011.0
20260506214848 54 0 0.0 0.0 0.00 0.00 0.00 72 1011.0
20260506213332 54 0 0.0 0.0 0.00 0.00 0.00 72 1011.0
20260506211829 57 170 1.7 0.0 0.00 0.00 0.00 67 1011.0
20260506210332 57 170 1.7 0.0 0.00 0.00 0.00 67 1011.0
20260506204833 59 170 4.3 0.0 0.00 0.00 0.00 63 1011.0
20260506203332 59 170 4.3 0.0 0.00 0.00 0.00 63 1011.0
20260506201829 61 180 4.3 0.0 0.00 0.00 0.00 55 1011.0
20260506200332 61 180 4.3 0.0 0.00 0.00 0.00 55 1011.0
20260506194851 61 170 4.3 0.0 0.00 0.00 0.00 59 1011.0
20260506193356 61 170 4.3 0.0 0.00 0.00 0.00 59 1011.0
20260506191833 64 190 1.7 0.0 0.00 0.00 0.00 52 1011.0
20260506190332 64 190 1.7 0.0 0.00 0.00 0.00 52 1011.0
20260506184837 66 230 2.6 0.0 0.00 0.00 0.00 49 1011.0
20260506183332 66 230 2.6 0.0 0.00 0.00 0.00 49 1011.0
20260506181832 66 260 5.2 0.0 0.00 0.00 0.00 49 1010.0
20260506180333 66 260 5.2 0.0 0.00 0.00 0.00 49 1010.0
20260506174832 70 260 6.1 0.0 0.00 0.00 0.00 43 1010.0
20260506173332 70 260 6.1 0.0 0.00 0.00 0.00 43 1010.0
20260506171832 73 270 7.0 0.0 0.00 0.00 0.00 38 1010.0
20260506170332 73 270 7.0 0.0 0.00 0.00 0.00 38 1010.0
20260506164832 75 270 7.8 0.0 0.00 0.00 0.00 36 1010.0
20260506163332 75 270 7.8 0.0 0.00 0.00 0.00 36 1010.0
20260506161832 79 250 8.7 0.0 0.00 0.00 0.00 34 1010.0
20260506160332 79 250 8.7 0.0 0.00 0.00 0.00 34 1010.0
20260506154833 79 250 7.8 0.0 0.00 0.00 0.00 32 1011.0
20260506153332 79 250 7.8 0.0 0.00 0.00 0.00 32 1011.0
20260506151832 79 240 13.0 0.0 0.00 0.00 0.00 30 1011.0
20260506150338 79 240 13.0 0.0 0.00 0.00 0.00 30 1011.0
20260506144832 81 250 13.0 0.0 0.00 0.00 0.00 28 1011.0
20260506143344 81 250 13.0 0.0 0.00 0.00 0.00 28 1011.0
20260506141832 81 250 12.2 0.0 0.00 0.00 0.00 28 1011.0
20260506140450 81 250 12.2 0.0 0.00 0.00 0.00 28 1011.0
20260506134857 81 210 9.6 0.0 0.00 0.00 0.00 28 1011.0
20260506133332 81 210 9.6 0.0 0.00 0.00 0.00 28 1011.0
20260506131832 81 260 7.0 0.0 0.00 0.00 0.00 30 1011.0
20260506130341 81 260 7.0 0.0 0.00 0.00 0.00 30 1011.0
20260506124833 81 230 11.3 0.0 0.00 0.00 0.00 28 1012.0
20260506123332 81 230 11.3 0.0 0.00 0.00 0.00 28 1012.0
20260506121833 79 240 11.3 0.0 0.00 0.00 0.00 32 1012.0
20260506120332 79 240 11.3 0.0 0.00 0.00 0.00 32 1012.0
20260506114832 79 250 12.2 0.0 0.00 0.00 0.00 32 1012.0
20260506113333 79 250 12.2 0.0 0.00 0.00 0.00 32 1012.0
20260506111832 79 250 12.2 0.0 0.00 0.00 0.00 32 1013.0
20260506110332 79 250 12.2 0.0 0.00 0.00 0.00 32 1013.0
20260506104832 77 250 12.2 0.0 0.00 0.00 0.00 34 1013.0
20260506103332 77 250 12.2 0.0 0.00 0.00 0.00 34 1013.0
20260506101832 77 260 11.3 0.0 0.00 0.00 0.00 34 1013.0
20260506100332 77 260 11.3 0.0 0.00 0.00 0.00 34 1013.0
20260506094832 77 250 9.6 0.0 0.00 0.00 0.00 34 1013.0